This demonstration page uses our WeatherBlox Daily Observations layout. Learn more.

Left ArrowRight Arrow

Hourly Observations for March 28, 2021

Temp ( °F °C ) Dew Point ( °F °C ) Humidity (%) Winds ( mph kmh ) Pressure ( in mb ) Visibility ( mi km ) Precip ( " mm )
12:53 am 00:53 Clear 73 22.8 63 17.2 71 71 SSW 6 9 29.96 1015 10 16 0.00 0.00
1:53 am 01:53 Partly Cloudy 73 22.8 59 15 62 62 SSW 9 15 29.94 1014 10 16 0.00 0.00
2:53 am 02:53 Mostly Cloudy 72 22.2 55 12.8 55 55 SSW 8 13 29.95 1014 10 16 0.00 0.00
3:53 am 03:53 Mostly Clear 71 21.7 53 11.7 53 53 SSW 8 13 29.93 1014 10 16 0.00 0.00
4:53 am 04:53 Mostly Clear 70 21.1 53 11.7 55 55 SSW 8 13 29.91 1013 10 16 0.00 0.00
5:53 am 05:53 Cloudy 69 20.6 56 13.3 63 63 SSW 12 19 29.91 1013 10 16 0.00 0.00
6:53 am 06:53 Mostly Clear 68 20 61 16.1 78 78 SSW 13 20 29.90 1013 10 16 0.00 0.00
7:19 am 07:19 Mostly Cloudy 68 20 62 16.7 81 81 SSW 15 24 29.90 1012 10 16 0.00 0.00
7:53 am 07:53 Cloudy 68 20 62 16.7 81 81 SW 13 20 29.91 1013 10 16 0.00 0.00
8:22 am 08:22 Cloudy 68 20 63 17.2 84 84 SW 12 19 29.92 1013 10 16 0.00 0.00
8:45 am 08:45 Cloudy 69 20.6 63 17.2 81 81 SW 12 19 29.92 1013 10 16 0.00 0.00
8:53 am 08:53 Cloudy 69 20.6 63 17.2 81 81 SW 10 17 29.92 1013 10 16 0.00 0.00
9:53 am 09:53 Cloudy 69 20.6 63 17.2 81 81 SSW 10 17 29.93 1013 10 16 0.00 0.00
10:53 am 10:53 Cloudy with Rain 69 20.6 64 17.8 84 84 SSW 13 20 29.91 1013 5 8 0.02 0.51
11:53 am 11:53 Cloudy with Rain 68 20 65 18.3 90 90 SSW 12 19 29.92 1013 4 6 0.15 3.81
12:45 pm 12:45 Mostly Cloudy 67 19.4 64 17.8 91 91 W 7 11 29.94 1014 10 16 0.04 1.02
12:53 pm 12:53 Cloudy 67 19.4 64 17.8 91 91 WSW 6 9 29.94 1014 10 16 0.04 1.02
1:53 pm 13:53 Mostly Cloudy 68 20 62 16.7 81 81 WSW 13 20 29.92 1013 10 16 0.00 0.00
2:53 pm 14:53 Cloudy 67 19.4 62 16.7 84 84 W 12 19 29.91 1013 10 16 0.00 0.00
3:53 pm 15:53 Cloudy 64 17.8 56 13.3 75 75 WNW 15 24 29.95 1014 10 16 0.00 0.00
4:53 pm 16:53 Cloudy 65 18.3 55 12.8 70 70 WNW 13 20 29.96 1015 10 16 0.00 0.00
5:53 pm 17:53 Mostly Sunny 63 17.2 48 8.9 58 58 NW 15 24 29.98 1015 10 16 0.00 0.00
6:53 pm 18:53 Sunny 62 16.7 46 7.8 56 56 WNW 15 24 30.01 1016 10 16 0.00 0.00
7:53 pm 19:53 Sunny 60 15.6 39 3.9 46 46 WNW 9 15 30.03 1017 10 16 0.00 0.00
8:53 pm 20:53 Clear 59 15 38 3.3 46 46 WNW 7 11 30.05 1018 10 16 0.00 0.00
9:53 pm 21:53 Clear 58 14.4 36 2.2 44 44 NW 7 11 30.09 1019 10 16 0.00 0.00
10:53 pm 22:53 Mostly Clear 57 13.9 36 2.2 45 45 NNW 7 11 30.11 1020 10 16 0.00 0.00
11:53 pm 23:53 Clear 55 12.8 32 0 42 42 NNW 7 11 30.14 1021 10 16 0.00 0.00

Powered by AerisWeather